Temp
-14 -14 -13 -13 -13 -13 -13 -13 -13 -13 -13 -13 -13 -13 -13 -13 -13 -15 -16 -16 -16 -16 -17 -17 -17 -17 -17 -17 -17 -17 -17 -17 -18 -17 -17 -16 -14 -12 -12 -12 -12 -12 -12 -12
-14 -14 -14 -13 -13 -13 -13 -14 -13 -13 -13 -13 -13 -13 -14 -14 -14 -16 -16 -16 -16 -16 -17 -17 -17 -17 -17 -17 -17 -17 -17 -17 -17 -18 -18 -17 -17 -15 -13 -12 -12 -12 -12 -13
-14 -14 -14 -13 -13 -13 -13 -13 -13 -13 -14 -13 -13 -13 -14 -14 -16 -16 -16 -16 -17 -17 -17 -17 -17 -17 -17 -17 -17 -17 -17 -17 -16 -16 -17 -17 -17 -17 -16 -14 -13 -12 -12 -13
-14 -14 -14 -14 -14 -14 -13 -14 -14 -13 -13 -14 -13 -14 -14 -15 -16 -16 -16 -16 -17 -17 -18 -18 -18 -18 -18 -18 -18 -18 -17 -17 -17 -17 -16 -16 -16 -16 -16 -17 -15 -14 -12 -12
-14 -14 -14 -14 -14 -14 -14 -14 -14 -14 -14 -14 -14 -14 -15 -16 -17 -17 -16 -17 -18 -18 -18 -18 -18 -18 -18 -18 -18 -18 -18 -18 -18 -17 -17 -16 -16 -16 -16 -16 -16 -16 -14 -13
-15 -14 -14 -14 -14 -14 -14 -14 -14 -14 -14 -14 -14 -15 -16 -17 -18 -18 -17 -18 -18 -18 -18 -18 -18 -18 -18 -19 -20 -20 -20 -20 -20 -19 -19 -17 -16 -16 -16 -16 -16 -16 -16 -15
-15 -15 -14 -14 -14 -14 -15 -14 -15 -14 -14 -14 -15 -15 -17 -18 -18 -18 -18 -18 -18 -18 -18 -18 -18 -18 -19 -20 -21 -21 -21 -21 -20 -20 -20 -19 -18 -16 -16 -16 -16 -16 -16 -16
-15 -15 -15 -15 -15 -15 -15 -15 -15 -15 -15 -14 -15 -16 -18 -18 -18 -18 -18 -18 -18 -18 -18 -18 -18 -19 -20 -21 -21 -21 -21 -21 -21 -21 -21 -20 -20 -18 -17 -16 -16 -17 -16 -16
-15 -15 -15 -15 -15 -15 -15 -15 -15 -15 -15 -14 -16 -18 -18 -18 -18 -18 -18 -18 -18 -18 -18 -18 -19 -20 -20 -21 -21 -21 -21 -21 -22 -22 -22 -21 -21 -19 -18 -18 -17 -16 -17 -17
-16 -16 -16 -16 -15 -15 -15 -15 -15 -15 -16 -15 -16 -17 -17 -17 -17 -18 -18 -18 -18 -18 -19 -18 -19 -20 -20 -21 -21 -21 -22 -22 -23 -23 -23 -22 -21 -20 -19 -18 -18 -17 -18 -18
-16 -16 -16 -16 -16 -16 -16 -16 -16 -15 -16 -16 -16 -17 -17 -17 -17 -18 -18 -18 -18 -18 -18 -18 -19 -19 -20 -20 -20 -21 -22 -22 -23 -23 -23 -22 -21 -20 -19 -18 -18 -19 -19 -19
-16 -16 -16 -16 -16 -16 -16 -16 -16 -16 -16 -17 -17 -18 -17 -17 -17 -17 -18 -18 -18 -19 -19 -18 -18 -19 -20 -20 -21 -21 -22 -22 -23 -24 -24 -22 -21 -20 -19 -19 -19 -20 -20 -20
-16 -17 -16 -16 -16 -16 -16 -16 -16 -16 -16 -17 -18 -18 -17 -17 -18 -18 -18 -18 -19 -19 -18 -19 -19 -19 -20 -20 -20 -21 -22 -22 -23 -24 -24 -23 -22 -21 -21 -21 -21 -21 -20 -20
-16 -16 -16 -16 -16 -16 -16 -16 -16 -16 -16 -17 -17 -17 -18 -18 -18 -18 -18 -18 -18 -18 -18 -18 -19 -19 -19 -20 -20 -20 -21 -21 -22 -24 -24 -24 -23 -22 -22 -22 -21 -21 -20 -19
-16 -16 -17 -17 -16 -16 -16 -16 -16 -16 -16 -17 -17 -17 -17 -17 -17 -17 -18 -18 -18 -18 -18 -18 -19 -19 -19 -20 -20 -20 -20 -21 -22 -22 -23 -24 -24 -22 -22 -22 -22 -21 -21 -20
-16 -16 -16 -17 -17 -16 -16 -16 -16 -16 -16 -16 -16 -17 -17 -17 -17 -17 -17 -18 -18 -18 -18 -18 -19 -19 -19 -19 -19 -20 -20 -20 -21 -22 -22 -22 -22 -22 -22 -22 -21 -21 -21 -20
-16 -16 -16 -16 -17 -16 -16 -17 -17 -16 -16 -16 -17 -17 -17 -17 -17 -17 -18 -18 -18 -18 -18 -18 -18 -19 -18 -19 -19 -20 -20 -20 -20 -21 -21 -21 -22 -21 -21 -21 -22 -21 -20 -21
-16 -16 -16 -16 -17 -16 -17 -17 -17 -17 -16 -16 -17 -17 -17 -17 -17 -17 -18 -18 -18 -18 -18 -19 -18 -18 -19 -19 -19 -20 -20 -20 -20 -20 -21 -21 -21 -20 -21 -21 -21 -21 -21 -20
-17 -17 -16 -16 -16 -16 -17 -17 -17 -17 -17 -17 -17 -17 -17 -17 -17 -17 -18 -18 -19 -19 -19 -19 -19 -18 -19 -19 -19 -20 -20 -20 -20 -20 -20 -20 -20 -20 -20 -20 -20 -20 -20 -20
-17 -17 -17 -17 -16 -16 -17 -17 -17 -16 -16 -16 -17 -17 -17 -17 -17 -18 -18 -18 -19 -19 -19 -19 -20 -20 -19 -20 -20 -20 -20 -20 -20 -20 -20 -20 -20 -19 -20 -19 -19 -19 -18 -18
-17 -17 -17 -17 -16 -16 -17 -17 -17 -16 -16 -16 -16 -17 -17 -17 -17 -18 -18 -19 -19 -19 -20 -20 -20 -20 -20 -20 -20 -20 -20 -20 -20 -20 -20 -20 -20 -20 -19 -20 -20 -20 -19 -19
-17 -17 -17 -17 -16 -16 -17 -16 -17 -17 -17 -16 -16 -17 -17 -17 -17 -18 -18 -19 -19 -20 -20 -20 -20 -20 -20 -20 -20 -20 -20 -21 -20 -20 -20 -20 -20 -20 -20 -20 -20 -19 -19 -19
-18 -18 -17 -17 -17 -18 -17 -16 -16 -17 -17 -16 -16 -17 -17 -17 -18 -18 -19 -19 -19 -20 -20 -20 -20 -20 -21 -21 -20 -20 -20 -20 -21 -20 -20 -20 -20 -20 -20 -20 -20 -19 -19 -19
-18 -18 -17 -17 -18 -18 -17 -16 -16 -17 -17 -17 -16 -17 -17 -17 -18 -18 -19 -19 -20 -20 -21 -21 -21 -21 -21 -21 -21 -20 -21 -20 -20 -21 -21 -21 -21 -20 -20 -20 -20 -20 -20 -20
-18 -17 -18 -17 -18 -17 -17 -17 -17 -17 -16 -17 -17 -17 -17 -17 -18 -18 -19 -20 -20 -21 -21 -21 -21 -21 -21 -21 -21 -21 -21 -21 -20 -20 -20 -21 -21 -21 -21 -21 -20 -20 -20 -20
-18 -18 -18 -18 -18 -17 -17 -17 -17 -17 -17 -17 -17 -17 -17 -17 -18 -18 -19 -20 -21 -21 -21 -21 -22 -22 -22 -22 -22 -21 -21 -21 -21 -21 -21 -20 -20 -21 -20 -20 -20 -20 -20 -20
Height
5734 5734 5733 5731 5730 5729 5727 5726 5723 5720 5718 5715 5710 5704 5700 5692 5684 5676 5670 5665 5660 5655 5650 5644 5640 5637 5633 5628 5624 5620 5617 5613 5608 5606 5604 5605 5609 5615 5622 5628 5634 5641 5646 5650
5731 5729 5729 5727 5726 5725 5723 5721 5719 5716 5712 5709 5704 5697 5692 5684 5674 5668 5662 5657 5650 5644 5638 5632 5626 5620 5615 5610 5605 5601 5598 5595 5593 5589 5585 5584 5585 5590 5595 5603 5611 5619 5625 5630
5725 5725 5724 5723 5721 5719 5717 5715 5713 5711 5707 5701 5698 5692 5685 5676 5666 5659 5653 5646 5639 5634 5628 5622 5616 5609 5602 5595 5589 5583 5577 5572 5569 5566 5565 5563 5562 5564 5570 5577 5584 5593 5601 5609
5720 5719 5719 5718 5715 5713 5710 5709 5707 5703 5700 5695 5688 5684 5674 5666 5659 5651 5643 5637 5631 5623 5616 5610 5603 5597 5588 5580 5571 5562 5557 5551 5546 5541 5539 5540 5540 5543 5547 5552 5558 5566 5576 5587
5715 5714 5714 5712 5710 5707 5705 5702 5700 5696 5692 5688 5680 5673 5664 5657 5651 5643 5635 5630 5623 5617 5609 5601 5591 5580 5570 5559 5547 5538 5532 5528 5524 5517 5514 5514 5517 5521 5525 5530 5536 5541 5551 5564
5709 5708 5707 5706 5704 5701 5698 5695 5693 5690 5685 5681 5672 5663 5657 5647 5642 5634 5628 5624 5616 5609 5598 5588 5577 5565 5552 5538 5528 5520 5512 5505 5498 5495 5492 5489 5490 5495 5500 5508 5516 5522 5529 5539
5703 5702 5701 5700 5697 5695 5692 5690 5687 5685 5678 5673 5665 5657 5646 5639 5636 5628 5622 5616 5607 5596 5586 5576 5564 5550 5536 5524 5514 5503 5494 5487 5480 5475 5471 5467 5466 5468 5476 5484 5493 5502 5509 5518
5697 5698 5695 5694 5691 5689 5686 5684 5682 5677 5672 5667 5658 5644 5637 5635 5629 5623 5617 5606 5597 5589 5578 5567 5554 5537 5523 5512 5501 5490 5480 5471 5461 5455 5449 5446 5444 5445 5451 5459 5471 5482 5490 5498
5691 5691 5689 5687 5685 5683 5681 5678 5676 5670 5665 5658 5650 5640 5634 5628 5622 5617 5608 5600 5591 5582 5571 5558 5544 5529 5517 5506 5493 5481 5469 5456 5445 5436 5429 5424 5421 5422 5428 5437 5447 5460 5470 5480
5685 5685 5683 5681 5679 5677 5675 5674 5670 5664 5656 5650 5645 5635 5628 5624 5617 5611 5603 5594 5585 5575 5563 5552 5537 5523 5510 5496 5484 5471 5459 5446 5431 5420 5410 5405 5401 5401 5408 5417 5429 5440 5451 5462
5678 5678 5678 5675 5673 5672 5670 5668 5664 5659 5651 5644 5637 5631 5623 5619 5613 5606 5597 5588 5579 5569 5558 5546 5532 5517 5504 5491 5477 5464 5450 5436 5421 5408 5399 5389 5383 5385 5391 5402 5413 5425 5437 5449
5671 5671 5670 5669 5667 5666 5664 5661 5657 5652 5647 5640 5633 5627 5618 5613 5608 5600 5592 5584 5575 5566 5554 5540 5526 5513 5501 5488 5472 5457 5443 5428 5414 5404 5394 5384 5378 5377 5380 5389 5400 5414 5428 5439
5664 5664 5663 5663 5663 5661 5659 5655 5652 5647 5641 5636 5626 5624 5615 5609 5605 5596 5589 5582 5572 5561 5549 5537 5523 5510 5498 5485 5470 5453 5439 5426 5414 5403 5396 5386 5379 5376 5376 5381 5392 5406 5420 5432
5655 5657 5656 5656 5654 5654 5653 5648 5646 5641 5635 5631 5624 5619 5613 5606 5601 5594 5586 5577 5568 5556 5545 5534 5523 5509 5496 5484 5471 5455 5440 5428 5417 5406 5398 5392 5386 5382 5382 5385 5393 5405 5418 5430
5647 5649 5650 5649 5647 5647 5646 5642 5639 5636 5630 5625 5620 5614 5608 5602 5597 5590 5582 5573 5563 5554 5544 5534 5523 5509 5497 5486 5474 5460 5444 5432 5422 5414 5403 5396 5391 5390 5391 5393 5399 5407 5417 5426
5640 5641 5641 5643 5641 5639 5640 5636 5634 5630 5624 5619 5614 5611 5603 5597 5591 5585 5578 5569 5561 5552 5542 5533 5521 5510 5499 5488 5478 5466 5454 5440 5430 5422 5414 5408 5401 5399 5397 5396 5401 5409 5418 5426
5633 5633 5633 5637 5635 5634 5634 5632 5628 5625 5618 5613 5609 5606 5601 5594 5588 5581 5574 5567 5559 5550 5541 5532 5522 5511 5501 5490 5481 5470 5462 5451 5441 5432 5425 5419 5413 5409 5407 5402 5404 5410 5417 5426
5626 5625 5625 5628 5627 5629 5627 5624 5622 5619 5613 5608 5604 5601 5596 5591 5585 5578 5571 5564 5556 5548 5539 5531 5522 5512 5502 5492 5484 5474 5467 5459 5451 5443 5436 5430 5426 5421 5419 5417 5418 5421 5427 5432
5618 5618 5618 5617 5620 5622 5622 5618 5615 5612 5611 5604 5600 5595 5591 5586 5581 5575 5568 5561 5553 5546 5538 5530 5522 5514 5504 5494 5487 5479 5471 5466 5459 5453 5447 5442 5438 5433 5432 5430 5432 5439 5442 5444
5611 5611 5611 5611 5610 5613 5615 5611 5609 5606 5604 5599 5594 5590 5586 5582 5577 5571 5564 5558 5551 5544 5536 5529 5521 5514 5505 5498 5490 5483 5476 5471 5466 5462 5457 5452 5449 5444 5440 5441 5444 5448 5450 5455
5602 5603 5603 5602 5603 5608 5607 5603 5602 5602 5601 5594 5590 5585 5582 5577 5573 5566 5560 5554 5548 5541 5535 5527 5521 5514 5508 5501 5494 5488 5480 5476 5471 5467 5463 5460 5457 5455 5454 5453 5454 5456 5458 5461
5594 5594 5596 5597 5598 5600 5600 5595 5597 5597 5593 5589 5585 5581 5577 5572 5567 5561 5556 5551 5545 5539 5533 5527 5521 5514 5509 5503 5497 5491 5485 5480 5475 5471 5467 5464 5462 5461 5460 5460 5461 5462 5462 5464
5584 5588 5589 5592 5596 5593 5589 5588 5590 5590 5588 5584 5581 5577 5573 5568 5563 5558 5553 5547 5542 5537 5531 5525 5520 5514 5509 5504 5499 5494 5489 5484 5480 5476 5471 5468 5466 5465 5465 5465 5465 5466 5467 5469
5577 5580 5582 5584 5591 5585 5581 5582 5585 5583 5582 5579 5576 5573 5568 5564 5558 5553 5547 5542 5537 5533 5528 5523 5519 5514 5509 5504 5500 5496 5491 5487 5484 5481 5477 5474 5472 5470 5469 5469 5469 5470 5471 5473
5570 5572 5577 5580 5580 5576 5577 5577 5578 5576 5576 5574 5571 5568 5564 5559 5554 5548 5542 5537 5533 5529 5525 5521 5517 5513 5509 5504 5500 5497 5494 5490 5487 5485 5482 5480 5478 5476 5475 5475 5475 5475 5476 5477
5565 5566 5568 5572 5568 5569 5573 5573 5572 5571 5570 5568 5566 5563 5560 5555 5550 5544 5537 5532 5528 5524 5521 5518 5515 5511 5507 5503 5500 5496 5494 5492 5490 5488 5485 5483 5482 5481 5480 5480 5480 5480 5481 5481
Wind_Speed
15 15 14 16 18 18 16 15 16 19 21 25 30 38 45 50 53 42 35 37 35 38 41 44 45 45 46 46 47 47 48 50 53 55 65 70 79 86 83 80 78 75 73 72
15 14 15 17 17 17 17 17 20 22 25 28 33 41 48 50 48 37 37 39 39 39 41 44 47 50 52 53 53 52 52 52 54 58 62 63 69 75 84 88 85 81 79 76
15 14 16 16 16 17 18 19 22 23 26 31 35 41 47 47 41 36 41 40 38 37 39 41 44 48 50 53 56 58 60 62 62 59 60 65 65 68 72 83 89 89 85 83
15 15 15 16 16 18 20 22 23 26 29 32 38 44 48 42 36 36 38 36 37 39 41 41 42 46 53 56 64 62 60 63 64 66 65 63 66 65 64 71 80 89 92 89
15 15 15 17 18 20 21 22 24 27 31 34 41 46 42 38 34 33 31 35 35 39 42 44 48 55 59 64 65 60 61 61 63 64 65 66 66 69 66 64 65 75 90 94
16 16 17 18 19 21 22 25 27 28 32 36 43 47 42 37 35 33 31 32 36 40 45 49 52 61 66 64 55 54 58 54 52 52 55 63 66 69 72 68 65 66 72 89
17 16 18 19 19 21 23 26 28 30 33 39 46 52 35 32 32 33 32 34 40 46 48 49 56 61 56 49 49 54 50 49 52 51 52 53 61 67 73 69 68 68 67 69
17 17 18 18 19 22 23 26 27 32 36 40 49 47 29 26 31 32 31 39 44 44 45 50 54 52 46 39 38 44 47 50 53 55 55 53 58 60 66 74 75 69 70 69
19 18 18 19 19 23 25 26 28 32 37 45 41 25 23 32 33 31 36 40 42 44 45 46 50 44 41 44 40 41 38 40 42 44 44 48 50 58 60 65 68 72 69 73
22 21 19 20 20 22 24 25 29 32 38 41 25 27 29 30 33 32 35 39 39 44 45 43 48 44 45 44 41 41 41 43 40 37 37 40 46 51 55 57 62 66 67 70
25 23 21 21 20 22 23 24 28 31 33 30 31 27 28 30 35 35 37 39 39 42 44 43 46 43 41 42 40 40 38 43 37 31 26 29 25 38 47 51 57 58 60 58
26 24 22 21 20 22 22 25 26 30 32 25 30 27 28 32 33 37 37 37 39 40 44 47 46 48 40 44 46 44 42 39 37 32 31 26 14 20 35 47 52 57 53 51
26 24 23 21 22 22 19 24 25 28 30 24 29 27 29 30 33 36 35 35 37 40 44 46 47 46 38 44 49 45 44 38 38 28 28 24 17 10 15 30 45 51 51 44
28 25 23 22 22 21 18 24 24 26 31 24 26 27 29 30 32 33 32 35 38 42 43 45 46 45 42 43 45 51 38 40 35 30 21 21 18 9 2 15 30 39 43 42
30 26 24 23 24 22 17 24 24 24 31 22 24 28 31 30 30 35 36 36 40 40 39 41 45 46 40 40 45 44 42 36 35 30 32 22 15 11 9 6 16 24 29 31
30 26 26 22 24 23 16 23 24 22 30 21 24 26 31 30 31 34 37 38 38 39 39 37 40 43 42 36 37 39 39 34 29 25 23 32 25 18 12 4 14 14 19 28
29 29 30 24 24 22 17 21 22 20 29 24 24 28 28 30 33 34 35 35 37 38 37 34 36 37 40 34 32 32 33 31 32 31 29 27 22 22 25 22 21 22 21 14
28 28 29 27 25 21 18 21 21 19 26 21 23 26 29 31 33 34 34 33 35 35 34 34 32 34 34 36 31 34 32 37 25 27 31 25 26 32 28 28 25 27 18 11
32 30 29 31 26 23 16 21 21 21 22 23 23 23 27 32 35 35 35 33 33 33 31 32 32 30 31 32 29 28 31 30 32 21 23 29 32 25 26 27 28 23 21 15
33 32 31 30 31 27 18 21 20 21 23 25 24 25 26 32 34 34 34 33 32 30 29 31 32 30 31 30 28 23 22 25 22 23 21 18 23 25 18 24 27 26 25 22
35 34 33 34 33 27 21 22 22 22 25 26 28 28 29 31 34 32 33 33 30 27 26 28 29 30 29 31 27 24 19 16 18 21 18 21 18 18 22 22 20 21 20 19
34 36 36 34 33 29 23 28 23 19 23 26 29 27 27 31 31 30 31 31 29 26 24 25 27 30 30 29 29 26 22 21 17 14 14 15 18 18 13 14 18 13 11 12
34 33 34 32 24 25 27 29 24 22 23 24 27 24 26 27 30 30 30 28 27 25 23 25 26 28 28 27 26 26 24 20 16 17 18 12 11 13 13 11 9 7 5 7
33 30 33 30 17 26 31 27 23 25 20 22 23 25 23 27 31 32 30 28 25 23 22 23 24 25 25 24 23 22 22 22 18 14 13 14 16 15 11 8 7 7 8 9
32 32 27 22 21 30 30 25 25 25 20 21 22 24 21 27 31 34 31 29 26 24 23 22 22 24 23 22 20 18 17 16 18 16 15 14 13 13 13 13 14 13 13 12
23 25 28 25 30 32 28 25 26 25 21 20 20 21 21 27 32 32 31 29 27 25 23 21 21 23 22 20 17 16 14 11 10 11 13 13 14 14 13 13 13 12 12 13
Wind_Direction
260 265 277 289 299 297 294 293 296 301 305 313 312 313 314 319 322 312 303 305 301 294 292 291 290 289 284 285 286 283 279 279 277 271 264 251 245 245 244 244 244 243 241 243
260 273 284 292 292 295 297 303 302 308 308 310 316 317 322 323 317 307 307 308 305 300 298 298 298 296 293 290 289 286 283 278 271 267 268 263 256 245 242 241 242 241 242 240
261 275 286 286 290 298 303 302 302 307 310 313 315 318 325 323 310 305 309 313 312 308 302 298 296 295 295 295 292 287 283 280 277 272 261 261 259 253 247 240 239 238 237 238
260 276 287 289 296 302 303 301 301 305 308 315 316 318 328 317 302 307 311 312 311 315 315 310 304 302 300 299 296 287 282 282 279 276 268 258 256 253 251 246 240 235 234 234
261 275 285 292 299 304 303 299 300 308 313 317 320 323 324 308 302 312 315 318 316 318 315 314 310 311 307 305 302 291 287 285 281 276 269 261 252 251 250 247 245 239 234 231
261 273 286 293 298 304 305 304 306 310 314 321 324 326 321 304 310 320 321 318 323 321 324 321 316 314 313 309 301 300 297 287 281 276 270 263 256 246 244 243 245 243 238 233
261 275 286 291 297 305 306 306 307 310 319 325 323 325 313 306 318 318 323 329 331 334 327 324 322 317 314 314 304 305 299 289 284 279 278 269 258 248 239 240 239 237 239 237
260 276 288 288 298 305 307 307 315 320 324 325 327 323 317 323 323 326 331 338 337 335 331 329 326 327 325 328 327 319 307 297 290 286 280 269 259 252 241 236 237 234 235 234
263 272 287 294 303 308 308 310 315 322 326 329 334 332 341 334 330 330 340 339 338 337 335 335 339 335 330 325 326 330 335 316 300 289 280 265 260 252 243 237 233 232 233 233
262 266 281 294 302 305 308 310 318 326 333 333 351 339 343 340 336 339 344 342 341 342 342 338 347 340 335 336 332 328 326 329 313 305 293 279 263 254 241 233 231 227 228 229
265 269 280 291 299 305 305 308 320 328 336 328 337 340 343 339 334 342 347 344 345 348 345 346 351 349 348 345 346 347 332 337 333 328 323 312 261 242 232 230 225 223 221 222
266 270 278 289 295 302 304 308 322 332 332 324 331 344 340 339 338 342 346 343 345 345 349 351 350 354 350 350 349 343 347 341 344 347 345 342 295 254 229 223 219 214 216 222
266 268 275 283 288 295 297 307 321 329 326 323 328 342 339 337 339 341 341 339 342 346 354 353 353 351 351 353 359 356 349 1 355 350 348 360 353 320 243 219 211 211 216 222
268 269 270 276 285 294 297 306 318 328 324 322 327 339 340 333 335 337 338 340 345 351 352 354 355 355 359 356 4 6 7 13 7 7 355 9 24 29 161 190 198 208 216 224
266 265 263 271 282 290 293 301 313 325 321 317 324 333 341 332 334 338 340 342 348 350 351 349 355 359 358 358 11 5 10 9 8 12 27 23 27 58 72 155 193 203 211 219
262 265 258 263 275 283 288 298 309 319 321 319 321 328 333 337 337 339 340 341 344 348 351 351 353 359 3 6 9 15 20 28 27 26 20 43 48 71 79 181 178 183 193 207
261 263 262 263 269 276 280 288 302 318 321 318 319 327 331 332 333 336 337 337 341 345 348 354 353 354 2 8 10 19 30 34 46 38 44 44 43 73 67 95 123 149 155 148
259 260 264 268 268 268 271 288 301 316 320 315 319 330 333 337 334 333 333 334 339 343 346 351 358 356 359 10 12 25 28 29 38 55 54 58 63 69 80 85 88 102 114 132
257 260 264 265 266 266 273 286 298 313 322 319 313 322 331 336 335 332 330 332 336 339 342 346 354 359 1 7 11 24 24 29 34 52 60 63 58 57 75 85 87 85 139 154
258 259 258 261 266 263 263 278 292 310 317 326 310 311 320 328 332 330 329 329 335 337 340 344 347 356 357 6 11 16 27 30 33 32 66 62 73 69 57 79 85 95 87 98
253 256 259 259 267 263 269 282 293 307 310 321 324 308 314 324 331 330 331 330 332 335 336 338 341 350 357 1 7 18 27 26 30 40 41 54 63 72 79 87 89 96 94 95
248 250 255 261 264 266 264 271 284 304 306 317 324 320 314 324 331 335 336 333 330 329 330 331 335 343 352 355 360 8 17 34 29 28 45 47 51 70 98 96 111 98 88 92
247 251 251 251 261 270 264 268 285 300 303 314 323 324 324 330 330 333 331 326 325 325 324 327 334 342 346 353 354 356 7 12 23 39 53 59 62 65 83 101 108 115 112 84
246 246 248 252 256 256 257 267 288 296 296 309 319 322 329 330 329 328 326 322 318 316 317 323 331 337 339 342 349 353 357 7 15 17 31 49 66 78 89 94 90 90 84 83
242 246 253 250 254 251 263 271 288 294 294 307 315 319 326 329 328 327 323 319 315 312 314 320 326 331 333 335 340 345 355 2 11 23 32 45 59 71 79 83 89 92 95 92
249 252 251 247 252 254 261 269 283 287 290 301 308 313 324 328 328 327 326 319 312 311 313 317 322 327 331 334 332 332 339 352 4 15 30 40 51 58 63 67 73 79 81 80